This is the latest recevied weather packets stored in our database for station/object DM1HF-13. If no packets are shown the sender has not sent any weather packets the latest 10 day(s).
| Time | Temp. | Humidity | Pressure | Rain* | Wind** | Luminosity | Snow |
|---|---|---|---|---|---|---|---|
| 1777825516 | 26.11° C | 33% | 1012 hPa | 0 mm | - | 47 W/m² | - |
| 1777825216 | 26.67° C | 32% | 1011.9 hPa | 0 mm | - | 48 W/m² | - |
| 1777824916 | 27.78° C | 30% | 1011.8 hPa | 0 mm | - | 53 W/m² | - |
| 1777824616 | 28.33° C | 25% | 1011.9 hPa | 0 mm | - | 63 W/m² | - |
| 1777824316 | 28.33° C | 23% | 1011.8 hPa | 0 mm | - | 77 W/m² | - |
| 1777824016 | 28.33° C | 24% | 1011.8 hPa | 0 mm | - | 89 W/m² | - |
| 1777823716 | 28.89° C | 25% | 1011.8 hPa | 0 mm | - | 97 W/m² | - |
| 1777823417 | 28.33° C | 24% | 1011.9 hPa | 0 mm | - | 103 W/m² | - |
| 1777823116 | 28.33° C | 24% | 1011.9 hPa | 0 mm | - | 100 W/m² | - |
| 1777822816 | 28.33° C | 24% | 1011.9 hPa | 0 mm | - | 95 W/m² | - |
| 1777822516 | 27.78° C | 24% | 1011.9 hPa | 0 mm | - | 91 W/m² | - |
| 1777822216 | 27.78° C | 24% | 1011.9 hPa | 0 mm | - | 91 W/m² | - |
| 1777821916 | 27.78° C | 24% | 1012 hPa | 0 mm | - | 90 W/m² | - |
| 1777821616 | 28.33° C | 25% | 1012.1 hPa | 0 mm | - | 83 W/m² | - |
| 1777821316 | 28.33° C | 24% | 1012.1 hPa | 0 mm | - | 84 W/m² | - |
| 1777821016 | 28.33° C | 24% | 1012.1 hPa | 0 mm | - | 87 W/m² | - |
| 1777820716 | 28.33° C | 25% | 1012.2 hPa | 0 mm | - | 107 W/m² | - |
| 1777820416 | 28.33° C | 24% | 1012.3 hPa | 0 mm | - | 179 W/m² | - |
| 1777820116 | 28.89° C | 24% | 1012.3 hPa | 0 mm | - | 195 W/m² | - |
| 1777819816 | 28.89° C | 23% | 1012.4 hPa | 0 mm | - | 201 W/m² | - |
| 1777819516 | 28.89° C | 24% | 1012.5 hPa | 0 mm | - | 186 W/m² | - |
| 1777819216 | 28.89° C | 24% | 1012.5 hPa | 0 mm | - | 162 W/m² | - |
| 1777818916 | 28.89° C | 24% | 1012.6 hPa | 0 mm | - | 466 W/m² | - |
| 1777818616 | 28.89° C | 25% | 1012.6 hPa | 0 mm | - | 355 W/m² | - |
| 1777818316 | 28.89° C | 23% | 1012.7 hPa | 0 mm | - | 279 W/m² | - |
* Rain latest hour (hover to see other rain measurements)
** Current wind speed in m/s (hover to see current wind gust speed)